Regional Weather Roundup
Issued by NWS

Home | Current Version | Previous Version | Graphics & Text | Print | Product List | Glossary On
Versions: 1 2 3 4 5 6 7 8 9 10 11 12 13 14 15 16 17 18 19 20 21 22 23 24 25 26 27 28
000
ASUS45 KBOI 261110
RWRID

IDAHO REGIONAL WEATHER ROUNDUP
NATIONAL WEATHER SERVICE BOISE ID
500 AM MDT TUE JUL 26 2016

NOTE: "FAIR" INDICATES FEW OR NO CLOUDS BELOW 12000 FEET
WITH NO SIGNIFICANT WEATHER AND/OR OBSTRUCTIONS TO VISIBILITY

IDZ012-014-261200-
SOUTHWEST IDAHO


CITY           SKY/WX    TMP DP  RH WIND       PRES   REMARKS
BOISE          CLEAR     70  35  27 S7        29.96R
CALDWELL       NOT AVBL
MOUNTAIN HOME  CLEAR     66  32  28 NW1       29.96S
$$

IDZ016-017-261200-
SOUTHCENTRAL IDAHO


CITY           SKY/WX    TMP DP  RH WIND       PRES   REMARKS
BURLEY         CLEAR     53  42  66 N5        30.03S
JEROME         CLEAR     65  34  31 NE12      30.03R
TWIN FALLS     CLEAR     66  27  23 S12       30.03R
$$

IDZ019>023-261200-
SOUTHEAST IDAHO


CITY           SKY/WX    TMP DP  RH WIND       PRES   REMARKS
IDAHO FALLS    CLEAR     47  41  80 N6        30.12R
POCATELLO      CLEAR     57  32  38 CALM      30.09R
REXBURG        CLEAR     53  42  66 CALM      30.12R
$$

IDZ006-010-011-018-031-032-261200-
CENTRAL IDAHO MOUNTAINS


CITY           SKY/WX    TMP DP  RH WIND       PRES   REMARKS
MCCALL         CLEAR     55  44  66 CALM      30.14S
HAILEY         CLEAR     59  32  36 NW14      30.18R
STANLEY        NOT AVBL
SALMON         CLEAR     54  39  58 CALM      30.11R
CHALLIS        CLEAR     55  36  48 N5        30.16R
$$

IDZ002-004-006-007-026-261200-
NORTHERN IDAHO


CITY           SKY/WX    TMP DP  RH WIND       PRES   REMARKS
LEWISTON       CLEAR     69  47  45 CALM      29.96R
LOWELL           N/A     59  54  83 N3        30.03R
COEUR D`ALENE  CLEAR     61  54  77 E3        29.97S
MULLAN PASS    PTCLDY    66  40  38 CALM      30.21S
$$




USA.gov is the U.S. government's official web portal to all federal, state and local government web resources and services.